Location: ????????
(55.8351°N, 38.7040°E)
Time: 18:55:05
(UTC+00:00)

Cosmos 1743 - Pass Details

Date: 14 April 2024
Orbit: 476 x 491 km, 82.5° (Epoch: 18 May)

Event Time Altitude Azimuth Distance (km) Brightness Sun altitude
Rises 00:10:30 0° 339° (NNW) 2,601 6.6 -16.2°
Reaches altitude 10° 00:12:54 10° 326° (NW) 1,709 5.5 -16.0°
Maximum altitude 00:15:56 24° 271° (W) 1,068 3.9 -15.7°
Enters shadow 00:16:06 24° 267° (W) 1,070 3.9 -15.7°
